Location: Dallas
(32.7833°N, 96.8000°W)
Time: 02:26:03
(UTC-05:00)

N. Korean satellite - Pass Details

Date: 24 November 2017
Orbit: 455 x 508 km, 97.2° (Epoch: 22 October)

Event Time Altitude Azimuth Distance (km) Brightness Sun altitude
Rises 18:32:16 0° 168° (SSE) 2,479 10.2 -14.7°
Reaches altitude 10° 18:34:16 10° 169° (SSE) 1,616 9.3 -15.1°
Maximum altitude 18:37:45 88° 259° (WSW) 479 6.5 -15.8°
Drops below altitude 10° 18:41:19 10° 348° (NNW) 1,662 9.2 -16.6°
Sets 18:43:25 0° 349° (N) 2,558 10.2 -17.0°
